Regional Weather Roundup
Issued by NWS Glasgow, MT

Home | Current Version | Previous Version | Text Only | Print | Product List | Glossary On
Versions: 1 2 3 4 5 6 7 8 9 10 11 12 13 14 15 16 17 18 19 20 21 22 23 24 25 26 27 28 29 30 31 32 33 34 35 36 37 38 39 40 41 42 43 44 45 46 47 48 49 50
000
ASUS45 KGGW 030715
RWRGGW
HOURLY WEATHER ROUNDUP FOR NORTHEAST MONTANA
NATIONAL WEATHER SERVICE GLASGOW MONTANA
100 AM MDT WED SEP 03 2014

NOTE: "FAIR" INDICATES FEW OR NO CLOUDS BELOW 12,000 FEET WITH NO
SIGNIFICANT WEATHER AND/OR OBSTRUCTIONS TO VISISBILITY.

NORTHEAST MONTANA


CITY           SKY/WX    TMP DP  RH WIND       PRES   REMARKS
GLASGOW        PTCLDY    54  46  74 E9        29.67F
WOLF POINT     CLEAR     52  45  77 CALM      29.69F
JORDAN           N/A     50  46  86 CALM      29.69F
WINNETT          N/A     48  43  82 S3          N/A
SIDNEY         CLEAR     46  43  87 CALM      29.72F
GLENDIVE       CLEAR     54  43  66 E7        29.73S
MALTA            N/A     58  49  72 S2          N/A
SCOBEY           N/A     53  41  63 CALM      29.71

FORT PECK REPORTS


CITY           SKY/WX    TMP DP  RH WIND       PRES   REMARKS
FORT PECK        N/A     63  42  46 E7          N/A
THE PINES        N/A     62  48  60 S3          N/A

SOUTHEAST MONTANA


CITY           SKY/WX    TMP DP  RH WIND       PRES   REMARKS
BILLINGS       CLEAR     60  43  53 CALM      29.68F
MILES CITY     CLEAR     57  44  62 CALM      29.67F
BAKER          CLEAR     49  45  86 E9        29.75F
LIVINGSTON     CLEAR     61  35  37 NW7       29.72S

CENTRAL MONTANA


CITY           SKY/WX    TMP DP  RH WIND       PRES   REMARKS
HAVRE          MOCLDY    54  44  69 S5        29.65F
LEWISTOWN      CLEAR     52  42  69 SE7       29.73F
GREAT FALLS    MOCLDY    54  40  59 S6        29.66F
CUT BANK       PTCLDY    50  41  71 N14       29.72S
HELENA         CLEAR     57  38  48 CALM      29.69F
BUTTE          CLEAR     46  35  65 E5        29.80F
BOZEMAN        CLEAR     50  42  74 S5        29.74S

WESTERN MONTANA


CITY           SKY/WX    TMP DP  RH WIND       PRES   REMARKS
MISSOULA       MOCLDY    64  38  38 NW9       29.71S
KALISPELL      NOT AVBL

NORTH DAKOTA


CITY           SKY/WX    TMP DP  RH WIND       PRES   REMARKS
WILLISTON      PTCLDY    50  46  86 N3        29.71F
DICKINSON      CLEAR     50  43  77 E3        29.73F
MINOT          PTCLDY    54  49  83 S3        29.73F
BISMARCK       PTCLDY    53  50  89 NE3       29.76F

SOUTHERN SASKATCHEWAN


CITY           SKY/WX    TMP DP  RH WIND       PRES   REMARKS
REGINA         MOCLDY    55  52  88 NE6       29.74S
ESTEVAN        PTCLDY    52  48  87 SE5       29.72F
SWIFT CURRENT  CLOUDY    52  50  93 NE9       29.72R



USA.gov is the U.S. government's official web portal to all federal, state and local government web resources and services.